Time,TemperatureF,DewpointF,PressureIn,WindDirection,WindDirectionDegrees,WindSpeedMPH,WindSpeedGustMPH,Humidity,HourlyPrecipIn,Conditions,Clouds,dailyrainin,SoftwareType,DateUTC
2013-02-16 00:03:00,56.5,21.1,17.72,SSE,153,0.0,0.0,25,0.00,,,0.00,WeatherTracker,2013-02-16 08:03:00,
2013-02-16 00:08:00,56.3,20.9,17.72,SSE,153,0.0,0.0,25,0.00,,,0.00,WeatherTracker,2013-02-16 08:08:00,
2013-02-16 00:13:00,56.3,20.9,17.72,SSE,153,0.0,0.0,25,0.00,,,0.00,WeatherTracker,2013-02-16 08:13:00,
2013-02-16 00:18:00,56.1,20.8,17.72,SSE,153,0.0,0.0,25,0.00,,,0.00,WeatherTracker,2013-02-16 08:18:00,
2013-02-16 00:23:00,56.3,20.9,17.72,SSE,153,0.0,0.0,25,0.00,,,0.00,WeatherTracker,2013-02-16 08:23:00,
2013-02-16 00:28:00,56.3,20.9,17.72,SSE,153,0.0,0.0,25,0.00,,,0.00,WeatherTracker,2013-02-16 08:28:00,
2013-02-16 00:33:00,56.1,20.8,17.72,SSE,153,0.0,0.0,25,0.00,,,0.00,WeatherTracker,2013-02-16 08:33:00,
2013-02-16 00:38:00,56.1,20.8,17.72,SSE,153,0.0,0.0,25,0.00,,,0.00,WeatherTracker,2013-02-16 08:38:00,
2013-02-16 00:43:00,56.3,20.9,17.72,SSE,153,0.0,0.0,25,0.00,,,0.00,WeatherTracker,2013-02-16 08:43:00,
2013-02-16 00:48:00,56.3,20.9,17.72,SSE,153,0.0,0.0,25,0.00,,,0.00,WeatherTracker,2013-02-16 08:48:00,
2013-02-16 00:53:00,56.3,20.9,17.72,SSE,153,0.0,0.0,25,0.00,,,0.00,WeatherTracker,2013-02-16 08:53:00,
2013-02-16 00:58:00,56.3,20.9,17.72,SSE,153,0.0,0.0,25,0.00,,,0.00,WeatherTracker,2013-02-16 08:58:00,
2013-02-16 01:03:00,56.3,20.9,17.72,SSE,153,0.0,0.0,25,0.00,,,0.00,WeatherTracker,2013-02-16 09:03:00,
2013-02-16 01:08:00,56.3,20.9,17.72,SSE,153,0.0,0.0,25,0.00,,,0.00,WeatherTracker,2013-02-16 09:08:00,
2013-02-16 01:13:00,56.3,20.9,17.72,SSE,153,0.0,0.0,25,0.00,,,0.00,WeatherTracker,2013-02-16 09:13:00,
2013-02-16 01:18:00,56.1,20.8,17.72,SSE,153,0.0,0.0,25,0.00,,,0.00,WeatherTracker,2013-02-16 09:18:00,
2013-02-16 01:23:00,56.1,20.8,17.72,SSE,153,0.0,0.0,25,0.00,,,0.00,WeatherTracker,2013-02-16 09:23:00,
2013-02-16 01:28:00,56.1,20.8,17.72,SSE,153,0.0,0.0,25,0.00,,,0.00,WeatherTracker,2013-02-16 09:28:00,
2013-02-16 01:33:00,56.1,20.8,17.72,SSE,153,0.0,0.0,25,0.00,,,0.00,WeatherTracker,2013-02-16 09:33:00,
2013-02-16 01:39:00,56.1,20.8,17.72,SSE,153,0.0,0.0,25,0.00,,,0.00,WeatherTracker,2013-02-16 09:39:00,
2013-02-16 01:43:00,56.1,20.8,17.72,SSE,153,0.0,0.0,25,0.00,,,0.00,WeatherTracker,2013-02-16 09:43:00,
2013-02-16 01:48:00,56.1,20.8,17.72,SSE,153,0.0,0.0,25,0.00,,,0.00,WeatherTracker,2013-02-16 09:48:00,
2013-02-16 01:54:00,55.9,20.6,17.72,SSE,153,0.0,0.0,25,0.00,,,0.00,WeatherTracker,2013-02-16 09:54:00,
2013-02-16 01:59:00,55.9,20.6,17.72,SSE,153,0.0,0.0,25,0.00,,,0.00,WeatherTracker,2013-02-16 09:59:00,
2013-02-16 02:04:00,55.9,20.6,17.72,SSE,153,0.0,0.0,25,0.00,,,0.00,WeatherTracker,2013-02-16 10:04:00,
2013-02-16 02:09:00,55.9,20.6,17.72,SSE,153,0.0,0.0,25,0.00,,,0.00,WeatherTracker,2013-02-16 10:09:00,
2013-02-16 02:14:00,55.9,20.6,17.72,SSE,153,0.0,0.0,25,0.00,,,0.00,WeatherTracker,2013-02-16 10:14:00,
2013-02-16 02:19:00,55.8,20.5,17.72,SSE,153,0.0,0.0,25,0.00,,,0.00,WeatherTracker,2013-02-16 10:19:00,
2013-02-16 02:24:00,55.8,20.5,17.72,SSE,153,0.0,0.0,25,0.00,,,0.00,WeatherTracker,2013-02-16 10:24:00,
2013-02-16 02:29:00,55.8,20.5,17.72,SSE,153,0.0,0.0,25,0.00,,,0.00,WeatherTracker,2013-02-16 10:29:00,
2013-02-16 02:34:00,55.8,20.5,17.72,SSE,153,0.0,0.0,25,0.00,,,0.00,WeatherTracker,2013-02-16 10:34:00,
2013-02-16 02:39:00,55.8,20.5,17.72,SSE,153,0.0,0.0,25,0.00,,,0.00,WeatherTracker,2013-02-16 10:39:00,
2013-02-16 02:44:00,55.8,20.5,17.72,SSE,153,0.0,0.0,25,0.00,,,0.00,WeatherTracker,2013-02-16 10:44:00,
2013-02-16 02:49:00,55.6,20.3,17.72,SSE,153,0.0,0.0,25,0.00,,,0.00,WeatherTracker,2013-02-16 10:49:00,
2013-02-16 02:54:00,55.4,20.2,17.72,SSE,153,0.0,0.0,25,0.00,,,0.00,WeatherTracker,2013-02-16 10:54:00,
2013-02-16 02:59:00,55.2,20.9,17.72,SSE,153,0.0,0.0,26,0.00,,,0.00,WeatherTracker,2013-02-16 10:59:00,
2013-02-16 03:04:00,55.2,20.9,17.72,SSE,153,0.0,0.0,26,0.00,,,0.00,WeatherTracker,2013-02-16 11:04:00,
2013-02-16 03:09:00,55.0,20.8,17.72,SSE,153,0.0,0.0,26,0.00,,,0.00,WeatherTracker,2013-02-16 11:09:00,
2013-02-16 03:14:00,54.9,20.6,17.72,SSE,153,0.0,0.0,26,0.00,,,0.00,WeatherTracker,2013-02-16 11:14:00,
2013-02-16 03:19:00,55.0,20.8,17.72,SSE,153,0.0,0.0,26,0.00,,,0.00,WeatherTracker,2013-02-16 11:19:00,
2013-02-16 03:24:00,55.0,20.8,17.72,SSE,153,0.0,0.0,26,0.00,,,0.00,WeatherTracker,2013-02-16 11:24:00,
2013-02-16 03:29:00,55.0,20.8,17.72,SSE,153,0.0,0.0,26,0.00,,,0.00,WeatherTracker,2013-02-16 11:29:00,
2013-02-16 03:34:00,55.0,20.8,17.72,SSE,153,0.0,0.0,26,0.00,,,0.00,WeatherTracker,2013-02-16 11:34:00,
2013-02-16 03:39:00,55.0,20.8,17.72,SSE,153,0.0,0.0,26,0.00,,,0.00,WeatherTracker,2013-02-16 11:39:00,
2013-02-16 03:44:00,55.4,20.2,17.72,SSE,153,0.0,0.0,25,0.00,,,0.00,WeatherTracker,2013-02-16 11:44:00,
2013-02-16 03:49:00,55.2,20.9,17.72,SSE,153,0.0,0.0,26,0.00,,,0.00,WeatherTracker,2013-02-16 11:49:00,
2013-02-16 03:55:00,55.2,20.9,17.72,SSE,153,0.0,0.0,26,0.00,,,0.00,WeatherTracker,2013-02-16 11:55:00,
2013-02-16 04:00:00,55.2,20.0,17.72,SSE,153,0.0,0.0,25,0.00,,,0.00,WeatherTracker,2013-02-16 12:00:00,
2013-02-16 04:05:00,55.0,19.9,17.72,SSE,153,0.0,0.0,25,0.00,,,0.00,WeatherTracker,2013-02-16 12:05:00,
2013-02-16 04:10:00,54.7,19.6,17.72,SSE,153,0.0,0.0,25,0.00,,,0.00,WeatherTracker,2013-02-16 12:10:00,
2013-02-16 04:15:00,54.5,19.4,17.72,SSE,153,0.0,0.0,25,0.00,,,0.00,WeatherTracker,2013-02-16 12:15:00,
2013-02-16 04:20:00,54.5,19.4,17.72,SSE,153,0.0,0.0,25,0.00,,,0.00,WeatherTracker,2013-02-16 12:20:00,
2013-02-16 04:25:00,54.5,20.3,17.72,SSE,153,0.0,0.0,26,0.00,,,0.00,WeatherTracker,2013-02-16 12:25:00,
2013-02-16 04:30:00,54.3,20.2,17.72,SSE,153,0.0,0.0,26,0.00,,,0.00,WeatherTracker,2013-02-16 12:30:00,
2013-02-16 04:35:00,54.1,20.0,17.72,SSE,153,0.0,0.0,26,0.00,,,0.00,WeatherTracker,2013-02-16 12:35:00,
2013-02-16 04:40:00,54.1,20.0,17.72,SSE,153,0.0,0.0,26,0.00,,,0.00,WeatherTracker,2013-02-16 12:40:00,
2013-02-16 04:45:00,54.3,20.2,17.72,SSE,153,0.0,0.0,26,0.00,,,0.00,WeatherTracker,2013-02-16 12:45:00,
2013-02-16 04:50:00,54.5,20.3,17.72,SSE,153,0.0,0.0,26,0.00,,,0.00,WeatherTracker,2013-02-16 12:50:00,
2013-02-16 04:55:00,54.9,19.7,17.72,SSE,153,0.0,0.0,25,0.00,,,0.00,WeatherTracker,2013-02-16 12:55:00,
2013-02-16 05:00:00,55.2,20.0,17.72,SSE,153,0.0,0.0,25,0.00,,,0.00,WeatherTracker,2013-02-16 13:00:00,
2013-02-16 05:05:00,55.4,20.2,17.72,SSE,153,0.0,0.0,25,0.00,,,0.00,WeatherTracker,2013-02-16 13:05:00,
2013-02-16 05:10:00,55.0,19.9,17.72,SSE,153,0.0,0.0,25,0.00,,,0.00,WeatherTracker,2013-02-16 13:10:00,
2013-02-16 05:15:00,54.7,19.6,17.72,SSE,153,0.0,0.0,25,0.00,,,0.00,WeatherTracker,2013-02-16 13:15:00,
2013-02-16 05:20:00,55.0,19.9,17.72,SSE,153,0.0,0.0,25,0.00,,,0.00,WeatherTracker,2013-02-16 13:20:00,
2013-02-16 05:25:00,55.2,20.0,17.72,SSE,153,0.0,0.0,25,0.00,,,0.00,WeatherTracker,2013-02-16 13:25:00,
2013-02-16 05:30:00,55.6,20.3,17.72,SSE,153,0.0,0.0,25,0.00,,,0.00,WeatherTracker,2013-02-16 13:30:00,
2013-02-16 05:35:00,55.6,20.3,17.72,SSE,153,0.0,0.0,25,0.00,,,0.00,WeatherTracker,2013-02-16 13:35:00,
2013-02-16 05:40:00,55.6,20.3,17.72,SSE,153,0.0,0.0,25,0.00,,,0.00,WeatherTracker,2013-02-16 13:40:00,
2013-02-16 05:45:00,55.6,20.3,17.72,SSE,153,0.0,0.0,25,0.00,,,0.00,WeatherTracker,2013-02-16 13:45:00,
2013-02-16 05:50:00,55.4,20.2,17.72,SSE,153,0.0,0.0,25,0.00,,,0.00,WeatherTracker,2013-02-16 13:50:00,
2013-02-16 05:55:00,55.4,17.2,17.72,SSE,153,0.0,0.0,22,0.00,,,0.00,WeatherTracker,2013-02-16 13:55:00,
2013-02-16 06:00:00,55.4,17.2,17.72,SSE,153,0.0,0.0,22,0.00,,,0.00,WeatherTracker,2013-02-16 14:00:00,
2013-02-16 06:05:00,55.4,17.2,17.72,SSE,153,2.0,3.0,22,0.00,,,0.00,WeatherTracker,2013-02-16 14:05:00,
2013-02-16 06:10:00,55.4,17.2,17.72,SSE,153,0.0,0.0,22,0.00,,,0.00,WeatherTracker,2013-02-16 14:10:00,
2013-02-16 06:15:00,55.6,17.4,17.72,SSE,153,0.0,0.0,22,0.00,,,0.00,WeatherTracker,2013-02-16 14:15:00,
2013-02-16 06:21:00,55.4,17.2,17.72,SSE,153,0.0,0.0,22,0.00,,,0.00,WeatherTracker,2013-02-16 14:21:00,
2013-02-16 06:26:00,55.0,17.9,17.72,SSE,153,0.0,0.0,23,0.00,,,0.00,WeatherTracker,2013-02-16 14:26:00,
2013-02-16 06:31:00,55.0,17.9,17.72,SSE,153,2.0,3.0,23,0.00,,,0.00,WeatherTracker,2013-02-16 14:31:00,
2013-02-16 06:36:00,55.2,18.1,17.72,SSE,153,0.0,0.0,23,0.00,,,0.00,WeatherTracker,2013-02-16 14:36:00,
2013-02-16 06:41:00,55.4,17.2,17.72,NW,313,0.0,0.0,22,0.00,,,0.00,WeatherTracker,2013-02-16 14:41:00,
2013-02-16 06:46:00,55.4,17.2,17.72,NW,313,0.0,0.0,22,0.00,,,0.00,WeatherTracker,2013-02-16 14:46:00,
2013-02-16 06:51:00,55.4,17.2,17.72,NW,313,0.0,0.0,22,0.00,,,0.00,WeatherTracker,2013-02-16 14:51:00,
2013-02-16 06:56:00,55.6,17.4,17.72,NW,313,0.0,0.0,22,0.00,,,0.00,WeatherTracker,2013-02-16 14:56:00,
2013-02-16 07:01:00,55.6,17.4,17.72,West,265,0.0,0.0,22,0.00,,,0.00,WeatherTracker,2013-02-16 15:01:00,
2013-02-16 07:06:00,55.6,17.4,17.72,West,265,0.0,0.0,22,0.00,,,0.00,WeatherTracker,2013-02-16 15:06:00,
2013-02-16 07:11:00,55.6,17.4,17.72,West,265,0.0,0.0,22,0.00,,,0.00,WeatherTracker,2013-02-16 15:11:00,
2013-02-16 07:16:00,55.8,17.5,17.72,WNW,292,0.0,0.0,22,0.00,,,0.00,WeatherTracker,2013-02-16 15:16:00,
2013-02-16 07:21:00,55.9,17.7,17.72,WNW,292,0.0,0.0,22,0.00,,,0.00,WeatherTracker,2013-02-16 15:21:00,
2013-02-16 07:26:00,55.9,17.7,17.72,WNW,292,0.0,0.0,22,0.00,,,0.00,WeatherTracker,2013-02-16 15:26:00,
2013-02-16 07:31:00,56.1,17.8,17.72,WNW,292,0.0,0.0,22,0.00,,,0.00,WeatherTracker,2013-02-16 15:31:00,
2013-02-16 07:36:00,56.1,17.8,17.72,WNW,292,0.0,0.0,22,0.00,,,0.00,WeatherTracker,2013-02-16 15:36:00,
2013-02-16 07:41:00,56.1,17.8,17.72,WNW,292,0.0,0.0,22,0.00,,,0.00,WeatherTracker,2013-02-16 15:41:00,
2013-02-16 07:46:00,55.9,17.7,17.72,WNW,292,0.0,0.0,22,0.00,,,0.00,WeatherTracker,2013-02-16 15:46:00,
2013-02-16 07:51:00,55.9,17.7,17.72,WNW,292,0.0,0.0,22,0.00,,,0.00,WeatherTracker,2013-02-16 15:51:00,
2013-02-16 07:56:00,55.9,17.7,17.72,WNW,292,0.0,0.0,22,0.00,,,0.00,WeatherTracker,2013-02-16 15:56:00,
2013-02-16 08:01:00,55.9,17.7,17.72,WNW,292,0.0,0.0,22,0.00,,,0.00,WeatherTracker,2013-02-16 16:01:00,
2013-02-16 08:07:00,56.1,17.8,17.72,WNW,292,0.0,0.0,22,0.00,,,0.00,WeatherTracker,2013-02-16 16:07:00,
2013-02-16 08:12:00,56.1,17.8,17.72,WNW,292,0.0,0.0,22,0.00,,,0.00,WeatherTracker,2013-02-16 16:12:00,
2013-02-16 08:17:00,56.1,17.8,17.72,WNW,292,0.0,0.0,22,0.00,,,0.00,WeatherTracker,2013-02-16 16:17:00,
2013-02-16 08:22:00,56.1,17.8,17.72,WNW,292,0.0,0.0,22,0.00,,,0.00,WeatherTracker,2013-02-16 16:22:00,
2013-02-16 08:27:00,56.1,17.8,17.72,WNW,292,0.0,0.0,22,0.00,,,0.00,WeatherTracker,2013-02-16 16:27:00,
2013-02-16 08:32:00,56.1,17.8,17.72,WNW,292,0.0,0.0,22,0.00,,,0.00,WeatherTracker,2013-02-16 16:32:00,
2013-02-16 08:37:00,56.3,18.0,17.72,WNW,292,0.0,0.0,22,0.00,,,0.00,WeatherTracker,2013-02-16 16:37:00,
2013-02-16 08:42:00,56.5,18.1,17.72,WNW,292,0.0,0.0,22,0.00,,,0.00,WeatherTracker,2013-02-16 16:42:00,
2013-02-16 08:47:00,56.7,18.3,17.72,WNW,292,0.0,0.0,22,0.00,,,0.00,WeatherTracker,2013-02-16 16:47:00,
2013-02-16 08:52:00,56.7,18.3,17.72,WNW,292,0.0,0.0,22,0.00,,,0.00,WeatherTracker,2013-02-16 16:52:00,
2013-02-16 08:57:00,56.8,18.4,17.72,WNW,292,0.0,0.0,22,0.00,,,0.00,WeatherTracker,2013-02-16 16:57:00,
2013-02-16 09:02:00,57.0,18.6,17.72,WNW,292,0.0,0.0,22,0.00,,,0.00,WeatherTracker,2013-02-16 17:02:00,
2013-02-16 09:07:00,57.2,18.7,17.72,WNW,292,0.0,0.0,22,0.00,,,0.00,WeatherTracker,2013-02-16 17:07:00,
2013-02-16 09:12:00,57.6,21.0,17.72,WNW,292,0.0,0.0,24,0.00,,,0.00,WeatherTracker,2013-02-16 17:12:00,
2013-02-16 09:17:00,57.7,21.2,17.72,WNW,292,0.0,0.0,24,0.00,,,0.00,WeatherTracker,2013-02-16 17:17:00,
2013-02-16 09:23:00,57.9,21.4,17.72,WNW,292,0.0,0.0,24,0.00,,,0.00,WeatherTracker,2013-02-16 17:23:00,
2013-02-16 09:28:00,58.1,21.5,17.72,WNW,292,0.0,0.0,24,0.00,,,0.00,WeatherTracker,2013-02-16 17:28:00,
2013-02-16 09:33:00,58.3,21.7,17.72,WNW,292,0.0,0.0,24,0.00,,,0.00,WeatherTracker,2013-02-16 17:33:00,
2013-02-16 09:38:00,58.5,21.8,17.72,WNW,292,0.0,0.0,24,0.00,,,0.00,WeatherTracker,2013-02-16 17:38:00,
2013-02-16 09:43:00,58.5,21.8,17.72,WNW,292,0.0,0.0,24,0.00,,,0.00,WeatherTracker,2013-02-16 17:43:00,
2013-02-16 09:48:00,58.6,22.0,17.72,WNW,292,0.0,0.0,24,0.00,,,0.00,WeatherTracker,2013-02-16 17:48:00,
2013-02-16 09:53:00,58.6,22.0,17.72,WNW,292,0.0,0.0,24,0.00,,,0.00,WeatherTracker,2013-02-16 17:53:00,
2013-02-16 09:58:00,58.8,22.1,17.72,WNW,292,0.0,0.0,24,0.00,,,0.00,WeatherTracker,2013-02-16 17:58:00,
2013-02-16 10:03:00,59.0,22.3,17.72,WNW,292,0.0,0.0,24,0.00,,,0.00,WeatherTracker,2013-02-16 18:03:00,
2013-02-16 10:08:00,59.7,22.9,17.72,WNW,292,0.0,0.0,24,0.00,,,0.00,WeatherTracker,2013-02-16 18:08:00,
2013-02-16 10:13:00,59.9,23.0,17.72,WNW,292,0.0,0.0,24,0.00,,,0.00,WeatherTracker,2013-02-16 18:13:00,
2013-02-16 10:18:00,60.6,23.6,17.72,WNW,292,0.0,0.0,24,0.00,,,0.00,WeatherTracker,2013-02-16 18:18:00,
2013-02-16 10:23:00,61.0,20.8,17.72,WNW,292,0.0,0.0,21,0.00,,,0.00,WeatherTracker,2013-02-16 18:23:00,
2013-02-16 10:28:00,60.8,20.6,17.72,WNW,292,0.0,0.0,21,0.00,,,0.00,WeatherTracker,2013-02-16 18:28:00,
2013-02-16 10:33:00,61.0,20.8,17.72,WNW,292,0.0,0.0,21,0.00,,,0.00,WeatherTracker,2013-02-16 18:33:00,
2013-02-16 10:38:00,60.8,20.6,17.72,WNW,292,0.0,0.0,21,0.00,,,0.00,WeatherTracker,2013-02-16 18:38:00,
2013-02-16 10:43:00,61.0,20.8,17.72,WNW,292,0.0,0.0,21,0.00,,,0.00,WeatherTracker,2013-02-16 18:43:00,
2013-02-16 10:48:00,61.2,20.9,17.72,WNW,292,0.0,0.0,21,0.00,,,0.00,WeatherTracker,2013-02-16 18:48:00,
2013-02-16 10:53:00,61.0,20.8,17.72,WNW,292,0.0,0.0,21,0.00,,,0.00,WeatherTracker,2013-02-16 18:53:00,
2013-02-16 10:58:00,60.8,20.6,17.72,WNW,292,0.0,0.0,21,0.00,,,0.00,WeatherTracker,2013-02-16 18:58:00,
2013-02-16 11:03:00,60.8,20.6,17.72,WNW,292,0.0,0.0,21,0.00,,,0.00,WeatherTracker,2013-02-16 19:03:00,
2013-02-16 11:08:00,61.0,20.8,17.72,WNW,292,0.0,0.0,21,0.00,,,0.00,WeatherTracker,2013-02-16 19:08:00,
2013-02-16 11:13:00,61.0,20.8,17.72,WNW,292,0.0,0.0,21,0.00,,,0.00,WeatherTracker,2013-02-16 19:13:00,
2013-02-16 11:18:00,61.3,21.1,17.72,WNW,292,0.0,0.0,21,0.00,,,0.00,WeatherTracker,2013-02-16 19:18:00,
2013-02-16 11:23:00,61.3,21.1,17.72,WNW,292,0.0,0.0,21,0.00,,,0.00,WeatherTracker,2013-02-16 19:23:00,
2013-02-16 11:28:00,61.7,21.4,17.72,WNW,292,0.0,0.0,21,0.00,,,0.00,WeatherTracker,2013-02-16 19:28:00,
2013-02-16 11:33:00,65.1,23.1,17.72,WNW,292,0.0,0.0,20,0.00,,,0.00,WeatherTracker,2013-02-16 19:33:00,
2013-02-16 11:38:00,65.7,23.5,17.72,WNW,292,0.0,0.0,20,0.00,,,0.00,WeatherTracker,2013-02-16 19:38:00,
2013-02-16 11:43:00,65.5,23.4,17.72,WNW,292,0.0,0.0,20,0.00,,,0.00,WeatherTracker,2013-02-16 19:43:00,
2013-02-16 11:48:00,64.6,22.6,17.72,WNW,292,0.0,0.0,20,0.00,,,0.00,WeatherTracker,2013-02-16 19:48:00,
2013-02-16 11:53:00,64.0,23.3,17.72,WNW,292,0.0,0.0,21,0.00,,,0.00,WeatherTracker,2013-02-16 19:53:00,
2013-02-16 11:58:00,63.7,23.0,17.72,WNW,292,0.0,0.0,21,0.00,,,0.00,WeatherTracker,2013-02-16 19:58:00,
2013-02-16 12:03:00,63.5,22.9,17.72,WNW,292,0.0,0.0,21,0.00,,,0.00,WeatherTracker,2013-02-16 20:03:00,
2013-02-16 12:09:00,63.5,22.9,17.72,WNW,292,0.0,0.0,21,0.00,,,0.00,WeatherTracker,2013-02-16 20:09:00,
2013-02-16 12:14:00,64.2,23.5,17.72,WNW,292,0.0,0.0,21,0.00,,,0.00,WeatherTracker,2013-02-16 20:14:00,
2013-02-16 12:19:00,64.4,22.5,17.72,WNW,292,0.0,0.0,20,0.00,,,0.00,WeatherTracker,2013-02-16 20:19:00,
2013-02-16 12:25:00,64.2,23.5,17.72,WNW,292,0.0,0.0,21,0.00,,,0.00,WeatherTracker,2013-02-16 20:25:00,
2013-02-16 12:30:00,63.9,23.2,17.72,WNW,292,0.0,0.0,21,0.00,,,0.00,WeatherTracker,2013-02-16 20:30:00,
2013-02-16 12:35:00,63.9,23.2,17.72,WNW,292,0.0,0.0,21,0.00,,,0.00,WeatherTracker,2013-02-16 20:35:00,
2013-02-16 12:40:00,63.9,23.2,17.72,WNW,292,0.0,0.0,21,0.00,,,0.00,WeatherTracker,2013-02-16 20:40:00,
2013-02-16 12:45:00,63.9,23.2,17.72,WNW,292,0.0,0.0,21,0.00,,,0.00,WeatherTracker,2013-02-16 20:45:00,
2013-02-16 12:50:00,64.0,23.3,17.72,WNW,292,0.0,0.0,21,0.00,,,0.00,WeatherTracker,2013-02-16 20:50:00,
2013-02-16 12:55:00,64.4,22.5,17.72,WNW,292,0.0,0.0,20,0.00,,,0.00,WeatherTracker,2013-02-16 20:55:00,
2013-02-16 13:00:00,65.3,23.2,17.72,WNW,292,0.0,0.0,20,0.00,,,0.00,WeatherTracker,2013-02-16 21:00:00,
2013-02-16 13:05:00,65.8,23.7,17.72,WNW,292,0.0,0.0,20,0.00,,,0.00,WeatherTracker,2013-02-16 21:05:00,
2013-02-16 13:10:00,66.6,24.2,17.72,WNW,292,0.0,0.0,20,0.00,,,0.00,WeatherTracker,2013-02-16 21:10:00,
2013-02-16 13:16:00,70.9,26.6,17.72,WNW,292,0.0,0.0,19,0.00,,,0.00,WeatherTracker,2013-02-16 21:16:00,
2013-02-16 13:21:00,73.8,27.6,17.72,WNW,292,0.0,0.0,18,0.00,,,0.00,WeatherTracker,2013-02-16 21:21:00,
2013-02-16 13:26:00,74.5,25.3,17.72,WNW,292,0.0,0.0,16,0.00,,,0.00,WeatherTracker,2013-02-16 21:26:00,
2013-02-16 13:31:00,73.2,24.3,17.72,WNW,292,0.0,0.0,16,0.00,,,0.00,WeatherTracker,2013-02-16 21:31:00,
2013-02-16 13:36:00,69.8,23.0,17.72,WNW,292,0.0,0.0,17,0.00,,,0.00,WeatherTracker,2013-02-16 21:36:00,
2013-02-16 13:42:00,66.9,24.5,17.72,WNW,292,0.0,0.0,20,0.00,,,0.00,WeatherTracker,2013-02-16 21:42:00,
2013-02-16 13:47:00,65.8,23.7,17.72,WNW,292,0.0,0.0,20,0.00,,,0.00,WeatherTracker,2013-02-16 21:47:00,
2013-02-16 13:52:00,65.3,23.2,17.72,WNW,292,0.0,0.0,20,0.00,,,0.00,WeatherTracker,2013-02-16 21:52:00,
2013-02-16 13:57:00,64.6,25.9,17.72,WNW,292,0.0,0.0,23,0.00,,,0.00,WeatherTracker,2013-02-16 21:57:00,
2013-02-16 14:02:00,63.9,25.3,17.72,WNW,292,0.0,0.0,23,0.00,,,0.00,WeatherTracker,2013-02-16 22:02:00,
2013-02-16 14:07:00,63.5,25.0,17.72,WNW,292,0.0,0.0,23,0.00,,,0.00,WeatherTracker,2013-02-16 22:07:00,
2013-02-16 14:12:00,63.3,25.9,17.72,WNW,292,0.0,0.0,24,0.00,,,0.00,WeatherTracker,2013-02-16 22:12:00,
2013-02-16 14:17:00,63.1,25.8,17.72,WNW,292,0.0,0.0,24,0.00,,,0.00,WeatherTracker,2013-02-16 22:17:00,
2013-02-16 14:22:00,63.1,26.7,17.72,SSW,208,0.0,0.0,25,0.00,,,0.00,WeatherTracker,2013-02-16 22:22:00,
2013-02-16 14:27:00,63.5,26.1,17.72,SE,139,0.0,0.0,24,0.00,,,0.00,WeatherTracker,2013-02-16 22:27:00,
2013-02-16 14:32:00,63.5,26.1,17.72,SSE,147,0.0,0.0,24,0.00,,,0.00,WeatherTracker,2013-02-16 22:32:00,
2013-02-16 14:37:00,63.5,26.1,17.72,SE,136,0.0,2.0,24,0.00,,,0.00,WeatherTracker,2013-02-16 22:37:00,
2013-02-16 14:42:00,63.5,26.1,17.72,SSE,151,0.0,0.0,24,0.00,,,0.00,WeatherTracker,2013-02-16 22:42:00,
2013-02-16 14:47:00,63.5,27.1,17.72,SSE,151,0.0,0.0,25,0.00,,,0.00,WeatherTracker,2013-02-16 22:47:00,
2013-02-16 14:52:00,63.5,26.1,17.72,SSE,151,0.0,0.0,24,0.00,,,0.00,WeatherTracker,2013-02-16 22:52:00,
2013-02-16 14:57:00,63.1,26.7,17.72,SSE,151,0.0,0.0,25,0.00,,,0.00,WeatherTracker,2013-02-16 22:57:00,
2013-02-16 15:02:00,62.8,25.5,17.72,SSE,151,0.0,0.0,24,0.00,,,0.00,WeatherTracker,2013-02-16 23:02:00,
2013-02-16 15:07:00,62.4,26.1,17.72,SSE,151,0.0,0.0,25,0.00,,,0.00,WeatherTracker,2013-02-16 23:07:00,
2013-02-16 15:12:00,62.1,26.8,17.72,SSE,151,0.0,0.0,26,0.00,,,0.00,WeatherTracker,2013-02-16 23:12:00,
2013-02-16 15:17:00,61.7,26.5,17.72,SSE,151,0.0,0.0,26,0.00,,,0.00,WeatherTracker,2013-02-16 23:17:00,
2013-02-16 15:22:00,61.5,26.3,17.72,SSE,151,0.0,0.0,26,0.00,,,0.00,WeatherTracker,2013-02-16 23:22:00,
2013-02-16 15:27:00,61.5,26.3,17.72,SSE,151,0.0,0.0,26,0.00,,,0.00,WeatherTracker,2013-02-16 23:27:00,
2013-02-16 15:32:00,61.3,26.2,17.72,SSE,151,0.0,0.0,26,0.00,,,0.00,WeatherTracker,2013-02-16 23:32:00,
2013-02-16 15:37:00,61.0,25.9,17.72,SSE,151,0.0,0.0,26,0.00,,,0.00,WeatherTracker,2013-02-16 23:37:00,
2013-02-16 15:42:00,60.8,25.7,17.72,SSE,151,0.0,0.0,26,0.00,,,0.00,WeatherTracker,2013-02-16 23:42:00,
2013-02-16 15:47:00,60.6,25.5,17.72,WSW,246,0.0,4.0,26,0.00,,,0.00,WeatherTracker,2013-02-16 23:47:00,
2013-02-16 15:52:00,60.4,25.4,17.72,WSW,246,0.0,0.0,26,0.00,,,0.00,WeatherTracker,2013-02-16 23:52:00,
2013-02-16 15:57:00,60.4,25.4,17.72,WSW,246,0.0,2.0,26,0.00,,,0.00,WeatherTracker,2013-02-16 23:57:00,
2013-02-16 16:02:00,60.3,25.2,17.72,WSW,246,0.0,2.0,26,0.00,,,0.00,WeatherTracker,2013-02-17 00:02:00,
2013-02-16 16:07:00,60.1,25.1,17.72,WSW,246,0.0,0.0,26,0.00,,,0.00,WeatherTracker,2013-02-17 00:07:00,
2013-02-16 16:12:00,60.1,25.1,17.72,WSW,246,0.0,0.0,26,0.00,,,0.00,WeatherTracker,2013-02-17 00:12:00,
2013-02-16 16:17:00,59.9,24.9,17.72,WSW,246,0.0,0.0,26,0.00,,,0.00,WeatherTracker,2013-02-17 00:17:00,
2013-02-16 16:22:00,59.7,25.7,17.72,WSW,246,0.0,2.0,27,0.00,,,0.00,WeatherTracker,2013-02-17 00:22:00,
2013-02-16 16:27:00,59.5,24.6,17.72,WSW,239,0.0,0.0,26,0.00,,,0.00,WeatherTracker,2013-02-17 00:27:00,
2013-02-16 16:32:00,59.4,25.4,17.72,WSW,239,0.0,0.0,27,0.00,,,0.00,WeatherTracker,2013-02-17 00:32:00,
2013-02-16 16:38:00,59.4,25.4,17.72,SSW,207,0.0,4.0,27,0.00,,,0.00,WeatherTracker,2013-02-17 00:38:00,
2013-02-16 16:43:00,59.2,25.2,17.72,WSW,238,0.0,3.0,27,0.00,,,0.00,WeatherTracker,2013-02-17 00:43:00,
2013-02-16 16:48:00,59.2,25.2,17.72,WSW,241,0.0,0.0,27,0.00,,,0.00,WeatherTracker,2013-02-17 00:48:00,
2013-02-16 16:53:00,59.0,25.1,17.72,WSW,241,0.0,3.0,27,0.00,,,0.00,WeatherTracker,2013-02-17 00:53:00,
2013-02-16 16:58:00,59.2,25.2,17.72,SW,232,0.0,3.0,27,0.00,,,0.00,WeatherTracker,2013-02-17 00:58:00,
2013-02-16 17:03:00,59.0,25.1,17.72,SW,232,0.0,0.0,27,0.00,,,0.00,WeatherTracker,2013-02-17 01:03:00,
2013-02-16 17:08:00,58.8,24.9,17.72,SW,232,0.0,0.0,27,0.00,,,0.00,WeatherTracker,2013-02-17 01:08:00,
2013-02-16 17:13:00,58.6,24.8,17.72,SW,232,0.0,0.0,27,0.00,,,0.00,WeatherTracker,2013-02-17 01:13:00,
2013-02-16 17:18:00,58.5,24.6,17.72,SW,232,0.0,0.0,27,0.00,,,0.00,WeatherTracker,2013-02-17 01:18:00,
2013-02-16 17:23:00,58.5,23.7,17.72,SW,232,0.0,2.0,26,0.00,,,0.00,WeatherTracker,2013-02-17 01:23:00,
2013-02-16 17:28:00,58.1,23.4,17.72,SW,232,0.0,0.0,26,0.00,,,0.00,WeatherTracker,2013-02-17 01:28:00,
2013-02-16 17:33:00,57.9,23.2,17.72,SW,232,0.0,0.0,26,0.00,,,0.00,WeatherTracker,2013-02-17 01:33:00,
2013-02-16 17:38:00,57.9,23.2,17.72,SW,232,0.0,0.0,26,0.00,,,0.00,WeatherTracker,2013-02-17 01:38:00,
2013-02-16 17:43:00,57.7,23.1,17.72,SW,232,0.0,0.0,26,0.00,,,0.00,WeatherTracker,2013-02-17 01:43:00,
2013-02-16 17:48:00,57.6,22.9,17.72,SW,232,0.0,0.0,26,0.00,,,0.00,WeatherTracker,2013-02-17 01:48:00,
2013-02-16 17:53:00,57.4,22.8,17.72,SW,232,0.0,0.0,26,0.00,,,0.00,WeatherTracker,2013-02-17 01:53:00,
2013-02-16 17:58:00,57.2,22.6,17.72,SW,232,0.0,0.0,26,0.00,,,0.00,WeatherTracker,2013-02-17 01:58:00,
2013-02-16 18:03:00,57.0,22.5,17.72,SW,232,0.0,0.0,26,0.00,,,0.00,WeatherTracker,2013-02-17 02:03:00,
2013-02-16 18:08:00,57.0,22.5,17.72,SW,232,0.0,0.0,26,0.00,,,0.00,WeatherTracker,2013-02-17 02:08:00,
2013-02-16 18:13:00,56.8,22.3,17.72,SW,232,0.0,0.0,26,0.00,,,0.00,WeatherTracker,2013-02-17 02:13:00,
2013-02-16 18:18:00,56.8,23.2,17.72,SW,232,0.0,0.0,27,0.00,,,0.00,WeatherTracker,2013-02-17 02:18:00,
2013-02-16 18:23:00,56.7,23.1,17.72,SW,232,0.0,0.0,27,0.00,,,0.00,WeatherTracker,2013-02-17 02:23:00,
2013-02-16 18:28:00,56.7,23.1,17.72,SW,232,0.0,0.0,27,0.00,,,0.00,WeatherTracker,2013-02-17 02:28:00,
2013-02-16 18:33:00,56.5,22.9,17.72,SW,232,0.0,0.0,27,0.00,,,0.00,WeatherTracker,2013-02-17 02:33:00,
2013-02-16 18:38:00,56.5,22.0,17.72,SW,232,0.0,0.0,26,0.00,,,0.00,WeatherTracker,2013-02-17 02:38:00,
2013-02-16 18:43:00,56.3,21.9,17.72,SW,232,0.0,0.0,26,0.00,,,0.00,WeatherTracker,2013-02-17 02:43:00,
2013-02-16 18:48:00,56.3,21.9,17.72,SW,232,0.0,0.0,26,0.00,,,0.00,WeatherTracker,2013-02-17 02:48:00,
2013-02-16 18:53:00,56.3,21.9,17.72,SW,232,0.0,0.0,26,0.00,,,0.00,WeatherTracker,2013-02-17 02:53:00,
2013-02-16 18:58:00,56.3,21.9,17.72,SW,232,0.0,0.0,26,0.00,,,0.00,WeatherTracker,2013-02-17 02:58:00,
2013-02-16 19:03:00,56.5,22.0,17.72,SW,232,0.0,0.0,26,0.00,,,0.00,WeatherTracker,2013-02-17 03:03:00,
2013-02-16 19:08:00,56.3,21.9,17.72,SW,232,0.0,0.0,26,0.00,,,0.00,WeatherTracker,2013-02-17 03:08:00,
2013-02-16 19:13:00,56.3,21.9,17.72,SW,232,0.0,0.0,26,0.00,,,0.00,WeatherTracker,2013-02-17 03:13:00,
2013-02-16 19:18:00,56.3,21.9,17.72,SW,232,0.0,0.0,26,0.00,,,0.00,WeatherTracker,2013-02-17 03:18:00,
2013-02-16 19:23:00,56.5,22.0,17.72,SW,232,0.0,0.0,26,0.00,,,0.00,WeatherTracker,2013-02-17 03:23:00,
2013-02-16 19:28:00,56.3,21.9,17.72,SW,232,0.0,0.0,26,0.00,,,0.00,WeatherTracker,2013-02-17 03:28:00,
2013-02-16 19:33:00,56.1,21.7,17.72,SW,232,0.0,0.0,26,0.00,,,0.00,WeatherTracker,2013-02-17 03:33:00,
2013-02-16 19:38:00,56.3,21.9,17.72,SW,232,0.0,0.0,26,0.00,,,0.00,WeatherTracker,2013-02-17 03:38:00,
2013-02-16 19:43:00,56.3,21.9,17.72,SW,232,0.0,0.0,26,0.00,,,0.00,WeatherTracker,2013-02-17 03:43:00,
2013-02-16 19:48:00,56.1,21.7,17.72,SW,232,0.0,0.0,26,0.00,,,0.00,WeatherTracker,2013-02-17 03:48:00,
2013-02-16 19:53:00,56.1,21.7,17.72,SW,232,0.0,0.0,26,0.00,,,0.00,WeatherTracker,2013-02-17 03:53:00,
2013-02-16 19:58:00,55.9,21.6,17.72,SW,232,0.0,0.0,26,0.00,,,0.00,WeatherTracker,2013-02-17 03:58:00,
2013-02-16 20:03:00,55.9,21.6,17.72,SW,232,0.0,0.0,26,0.00,,,0.00,WeatherTracker,2013-02-17 04:03:00,
2013-02-16 20:08:00,56.1,20.8,17.72,SW,232,0.0,0.0,25,0.00,,,0.00,WeatherTracker,2013-02-17 04:08:00,
2013-02-16 20:13:00,56.7,21.2,17.72,SW,232,0.0,0.0,25,0.00,,,0.00,WeatherTracker,2013-02-17 04:13:00,
2013-02-16 20:18:00,57.0,21.6,17.72,SW,232,0.0,0.0,25,0.00,,,0.00,WeatherTracker,2013-02-17 04:18:00,
2013-02-16 20:23:00,56.7,21.2,17.72,SW,232,0.0,0.0,25,0.00,,,0.00,WeatherTracker,2013-02-17 04:23:00,
2013-02-16 20:28:00,56.7,21.2,17.72,NW,310,0.0,3.0,25,0.00,,,0.00,WeatherTracker,2013-02-17 04:28:00,
2013-02-16 20:33:00,57.2,21.7,17.72,NW,313,2.0,0.0,25,0.00,,,0.00,WeatherTracker,2013-02-17 04:33:00,
2013-02-16 20:38:00,57.6,22.0,17.72,NW,313,0.0,0.0,25,0.00,,,0.00,WeatherTracker,2013-02-17 04:38:00,
2013-02-16 20:43:00,57.9,21.4,17.72,NW,313,0.0,3.0,24,0.00,,,0.00,WeatherTracker,2013-02-17 04:43:00,
2013-02-16 20:48:00,58.1,21.5,17.72,NW,313,0.0,0.0,24,0.00,,,0.00,WeatherTracker,2013-02-17 04:48:00,
2013-02-16 20:53:00,57.7,21.2,17.72,NW,313,0.0,0.0,24,0.00,,,0.00,WeatherTracker,2013-02-17 04:53:00,
2013-02-16 20:58:00,57.0,21.6,17.72,NW,313,0.0,0.0,25,0.00,,,0.00,WeatherTracker,2013-02-17 04:58:00,
2013-02-16 21:00:00,57.0,21.6,17.72,NW,313,0.0,0.0,25,0.00,,,0.00,WeatherTracker,2013-02-17 05:00:00,
2013-02-16 21:05:00,56.8,21.4,17.72,NW,313,0.0,0.0,25,0.00,,,0.00,WeatherTracker,2013-02-17 05:05:00,
2013-02-16 21:10:00,56.7,21.2,17.72,NW,313,0.0,0.0,25,0.00,,,0.00,WeatherTracker,2013-02-17 05:10:00,
2013-02-16 21:15:00,56.3,20.9,17.72,NW,313,0.0,0.0,25,0.00,,,0.00,WeatherTracker,2013-02-17 05:15:00,
2013-02-16 21:20:00,56.1,20.8,17.72,NW,313,0.0,0.0,25,0.00,,,0.00,WeatherTracker,2013-02-17 05:20:00,
2013-02-16 21:25:00,55.9,20.6,17.72,NW,313,0.0,0.0,25,0.00,,,0.00,WeatherTracker,2013-02-17 05:25:00,
2013-02-16 21:30:00,55.8,20.5,17.72,NW,313,0.0,0.0,25,0.00,,,0.00,WeatherTracker,2013-02-17 05:30:00,
2013-02-16 21:35:00,55.6,20.3,17.72,NW,313,0.0,0.0,25,0.00,,,0.00,WeatherTracker,2013-02-17 05:35:00,
2013-02-16 21:40:00,55.2,20.0,17.72,NW,313,0.0,0.0,25,0.00,,,0.00,WeatherTracker,2013-02-17 05:40:00,
2013-02-16 21:45:00,55.0,19.9,17.72,NW,313,0.0,0.0,25,0.00,,,0.00,WeatherTracker,2013-02-17 05:45:00,
2013-02-16 21:50:00,54.9,19.7,17.72,NW,313,0.0,0.0,25,0.00,,,0.00,WeatherTracker,2013-02-17 05:50:00,
2013-02-16 21:55:00,54.7,19.6,17.72,NW,313,0.0,0.0,25,0.00,,,0.00,WeatherTracker,2013-02-17 05:55:00,
2013-02-16 22:00:00,54.3,19.3,17.72,NW,313,0.0,0.0,25,0.00,,,0.00,WeatherTracker,2013-02-17 06:00:00,
2013-02-16 22:05:00,54.1,19.1,17.72,NW,313,0.0,0.0,25,0.00,,,0.00,WeatherTracker,2013-02-17 06:05:00,
2013-02-16 22:10:00,53.8,19.7,17.72,NW,313,0.0,0.0,26,0.00,,,0.00,WeatherTracker,2013-02-17 06:10:00,
2013-02-16 22:15:00,53.6,18.6,17.72,NW,313,0.0,0.0,25,0.00,,,0.00,WeatherTracker,2013-02-17 06:15:00,
2013-02-16 22:20:00,53.4,19.4,17.72,NW,313,0.0,0.0,26,0.00,,,0.00,WeatherTracker,2013-02-17 06:20:00,
2013-02-16 22:25:00,53.4,19.4,17.72,NW,313,0.0,0.0,26,0.00,,,0.00,WeatherTracker,2013-02-17 06:25:00,
2013-02-16 22:30:00,53.4,19.4,17.72,NW,313,0.0,0.0,26,0.00,,,0.00,WeatherTracker,2013-02-17 06:30:00,
2013-02-16 22:35:00,53.6,19.6,17.72,NW,313,0.0,0.0,26,0.00,,,0.00,WeatherTracker,2013-02-17 06:35:00,
2013-02-16 22:40:00,53.6,19.6,17.72,NW,313,0.0,0.0,26,0.00,,,0.00,WeatherTracker,2013-02-17 06:40:00,
2013-02-16 22:45:00,53.4,19.4,17.72,NW,313,0.0,0.0,26,0.00,,,0.00,WeatherTracker,2013-02-17 06:45:00,
2013-02-16 22:50:00,53.4,19.4,17.72,NW,313,0.0,0.0,26,0.00,,,0.00,WeatherTracker,2013-02-17 06:50:00,
2013-02-16 22:55:00,53.6,19.6,17.72,NW,313,0.0,0.0,26,0.00,,,0.00,WeatherTracker,2013-02-17 06:55:00,
2013-02-16 23:00:00,53.4,19.4,17.72,NW,313,0.0,0.0,26,0.00,,,0.00,WeatherTracker,2013-02-17 07:00:00,
2013-02-16 23:05:00,53.2,19.3,17.72,NW,313,0.0,0.0,26,0.00,,,0.00,WeatherTracker,2013-02-17 07:05:00,
2013-02-16 23:10:00,53.1,19.1,17.72,NW,313,0.0,0.0,26,0.00,,,0.00,WeatherTracker,2013-02-17 07:10:00,
2013-02-16 23:15:00,52.9,18.9,17.72,NW,313,0.0,0.0,26,0.00,,,0.00,WeatherTracker,2013-02-17 07:15:00,
2013-02-16 23:20:00,52.9,18.9,17.72,NW,313,0.0,0.0,26,0.00,,,0.00,WeatherTracker,2013-02-17 07:20:00,
2013-02-16 23:25:00,52.9,18.9,17.72,NW,313,0.0,0.0,26,0.00,,,0.00,WeatherTracker,2013-02-17 07:25:00,
2013-02-16 23:30:00,52.9,18.9,17.72,NW,313,0.0,0.0,26,0.00,,,0.00,WeatherTracker,2013-02-17 07:30:00,
2013-02-16 23:35:00,52.9,18.9,17.72,NW,313,0.0,0.0,26,0.00,,,0.00,WeatherTracker,2013-02-17 07:35:00,
2013-02-16 23:40:00,52.7,18.8,17.72,NW,313,0.0,0.0,26,0.00,,,0.00,WeatherTracker,2013-02-17 07:40:00,
2013-02-16 23:45:00,52.3,18.5,17.72,NW,313,0.0,0.0,26,0.00,,,0.00,WeatherTracker,2013-02-17 07:45:00,
2013-02-16 23:50:00,52.0,18.2,17.72,NW,313,0.0,0.0,26,0.00,,,0.00,WeatherTracker,2013-02-17 07:50:00,
2013-02-16 23:55:00,51.8,18.0,17.72,NW,313,0.0,0.0,26,0.00,,,0.00,WeatherTracker,2013-02-17 07:55:00,